This is the latest recevied weather packets stored in our database for station/object KV4OP. If no packets are shown the sender has not sent any weather packets the latest 10 day(s).
| Time | Temp. | Humidity | Pressure | Rain* | Wind** | Luminosity | Snow |
|---|---|---|---|---|---|---|---|
| 1788624903 | 32.78° C | 75% | 1015.2 hPa | 0 mm | - | - | - |
| 1788624604 | 32.22° C | 76% | 1015.2 hPa | 0 mm | - | - | - |
| 1788624304 | 31.67° C | 79% | 1015.2 hPa | 0 mm | - | - | - |
| 1788624012 | 31.67° C | 77% | 1015.3 hPa | 0 mm | - | - | - |
| 1788623703 | 31.67° C | 76% | 1015.3 hPa | 0 mm | - | - | - |
| 1788623404 | 32.22° C | 77% | 1015.5 hPa | 0 mm | - | - | - |
| 1788623104 | 32.78° C | 78% | 1015.6 hPa | 0 mm | - | - | - |
| 1788622813 | 31.67° C | 79% | 1015.6 hPa | 0 mm | - | - | - |
| 1788622504 | 31.11° C | 80% | 1015.7 hPa | 0 mm | - | - | - |
| 1788622204 | 31.11° C | 81% | 1015.7 hPa | 0 mm | - | - | - |
| 1788621904 | 31.11° C | 79% | 1015.7 hPa | 0 mm | - | - | - |
| 1788621613 | 31.67° C | 79% | 1015.7 hPa | 0 mm | - | - | - |
| 1788621305 | 31.11° C | 81% | 1015.8 hPa | 0 mm | - | - | - |
| 1788621004 | 30.56° C | 84% | 1015.7 hPa | 0 mm | - | - | - |
| 1788620712 | 30° C | 87% | 1015.7 hPa | 0 mm | - | - | - |
| 1788620412 | 30° C | 85% | 1015.7 hPa | 0 mm | - | - | - |
| 1788620104 | 30° C | 85% | 1015.7 hPa | 0 mm | - | - | - |
| 1788619805 | 30° C | 86% | 1015.7 hPa | 0 mm | - | - | - |
| 1788619504 | 30° C | 87% | 1015.6 hPa | 0 mm | - | - | - |
| 1788619213 | 29.44° C | 88% | 1015.6 hPa | 0 mm | - | - | - |
| 1788618905 | 29.44° C | 88% | 1015.5 hPa | 0 mm | - | - | - |
| 1788618604 | 29.44° C | 89% | 1015.6 hPa | 0 mm | - | - | - |
| 1788618304 | 28.89° C | 89% | 1015.5 hPa | 0 mm | - | - | - |
| 1788618013 | 28.89° C | 90% | 1015.5 hPa | 0 mm | - | - | - |
| 1788617705 | 28.89° C | 90% | 1015.6 hPa | 0 mm | - | - | - |
* Rain latest hour (hover to see other rain measurements)
** Current wind speed in m/s (hover to see current wind gust speed)